カタログに戻る

CZ-6A DEB

運用中PO
NORAD 54945·DEBRIS·🇨🇳 China

打ち上げ Nov 11, 2022 から Taiyuan Satellite Launch Center

Loading…

次のパス (今後24時間)

TLE

最新Source: Space-Track

元期: Sep 14, 2026, 07:58 UTC

1 54945U 22151SJ  26257.33245741  .00006361  00000-0  11705-2 0  9991
2 54945  99.1465  40.9881 0068581  81.5059 279.3905 14.64488376131156

AllMySatでCZ-6A DEBをリアルタイム追跡

Download on the App Store